TimeHAST,TemperatureF,Dew PointF,Humidity,Sea Level PressureIn,VisibilityMPH,Wind Direction,Wind SpeedMPH,Gust SpeedMPH,PrecipitationIn,Events,Conditions,WindDirDegrees,DateUTC
12:16 AM,39.2,32.0,75,30.08,10.0,NE,24.2,34.5,N/A,,Overcast,50,2013-11-28 10:16:00
12:36 AM,37.4,32.0,81,30.07,10.0,NE,28.8,35.7,N/A,,Mostly Cloudy,40,2013-11-28 10:36:00
12:56 AM,37.4,30.2,75,30.07,10.0,NNE,25.3,34.5,N/A,,Scattered Clouds,30,2013-11-28 10:56:00
1:16 AM,37.4,32.0,81,30.08,10.0,NNE,23.0,32.2,N/A,,Mostly Cloudy,30,2013-11-28 11:16:00
1:36 AM,37.4,32.0,81,30.07,10.0,NNE,21.9,35.7,N/A,,Mostly Cloudy,30,2013-11-28 11:36:00
1:56 AM,37.4,32.0,81,30.08,10.0,NNE,23.0,34.5,N/A,,Mostly Cloudy,30,2013-11-28 11:56:00
2:16 AM,37.4,30.2,75,30.08,10.0,NE,24.2,34.5,N/A,,Mostly Cloudy,40,2013-11-28 12:16:00
2:36 AM,37.4,30.2,75,30.08,10.0,NNE,23.0,33.4,N/A,,Scattered Clouds,30,2013-11-28 12:36:00
2:56 AM,37.4,30.2,75,30.09,10.0,NNE,24.2,27.6,N/A,,Mostly Cloudy,30,2013-11-28 12:56:00
3:16 AM,37.4,30.2,75,30.09,10.0,NNE,20.7,26.5,N/A,,Mostly Cloudy,30,2013-11-28 13:16:00
3:36 AM,35.6,30.2,81,30.09,10.0,NNE,20.7,24.2,N/A,,Scattered Clouds,30,2013-11-28 13:36:00
3:56 AM,35.6,30.2,81,30.09,10.0,NNE,21.9,29.9,N/A,,Mostly Cloudy,20,2013-11-28 13:56:00
4:16 AM,37.4,30.2,75,30.10,10.0,NE,20.7,26.5,N/A,,Overcast,40,2013-11-28 14:16:00
4:36 AM,35.6,30.2,81,30.11,10.0,NNE,20.7,32.2,N/A,,Overcast,30,2013-11-28 14:36:00
4:56 AM,37.4,30.2,75,30.11,10.0,NNE,17.3,27.6,N/A,,Overcast,30,2013-11-28 14:56:00
5:16 AM,35.6,30.2,81,30.11,10.0,NE,28.8,33.4,N/A,,Overcast,40,2013-11-28 15:16:00
5:36 AM,35.6,30.2,81,30.11,10.0,NE,18.4,33.4,N/A,,Overcast,40,2013-11-28 15:36:00
5:56 AM,35.6,30.2,81,30.11,10.0,NE,26.5,32.2,N/A,,Overcast,40,2013-11-28 15:56:00
6:16 AM,35.6,30.2,81,30.12,10.0,NNE,20.7,27.6,N/A,,Overcast,30,2013-11-28 16:16:00
6:36 AM,35.6,28.4,75,30.12,10.0,NNE,20.7,28.8,N/A,,Mostly Cloudy,30,2013-11-28 16:36:00
6:56 AM,35.6,28.4,75,30.12,10.0,NE,24.2,33.4,N/A,,Overcast,40,2013-11-28 16:56:00
7:16 AM,35.6,28.4,75,30.12,9.0,NE,19.6,31.1,N/A,,Overcast,40,2013-11-28 17:16:00
7:36 AM,35.6,30.2,81,30.13,10.0,NE,21.9,32.2,N/A,,Overcast,50,2013-11-28 17:36:00
7:56 AM,35.6,28.4,75,30.13,10.0,NE,20.7,34.5,N/A,,Overcast,40,2013-11-28 17:56:00
8:16 AM,35.6,28.4,75,30.14,10.0,NE,20.7,31.1,N/A,,Overcast,40,2013-11-28 18:16:00
8:36 AM,35.6,28.4,75,30.15,10.0,NNE,19.6,26.5,N/A,,Overcast,30,2013-11-28 18:36:00
8:56 AM,37.4,28.4,70,30.15,10.0,NE,25.3,31.1,N/A,,Overcast,40,2013-11-28 18:56:00
9:16 AM,35.6,28.4,75,30.16,10.0,NE,21.9,29.9,N/A,,Overcast,40,2013-11-28 19:16:00
9:36 AM,35.6,28.4,75,30.15,10.0,NNE,20.7,-,N/A,,Mostly Cloudy,20,2013-11-28 19:36:00
9:56 AM,35.6,30.2,81,30.16,8.0,NNE,23.0,28.8,N/A,,Mostly Cloudy,30,2013-11-28 19:56:00
10:16 AM,35.6,28.4,75,30.16,10.0,NNE,24.2,32.2,N/A,,Overcast,30,2013-11-28 20:16:00
10:36 AM,35.6,28.4,75,30.17,10.0,NNE,19.6,24.2,N/A,,Overcast,30,2013-11-28 20:36:00
10:56 AM,37.4,26.6,65,30.17,10.0,NE,27.6,36.8,N/A,,Overcast,40,2013-11-28 20:56:00
11:16 AM,37.4,28.4,70,30.18,10.0,NNE,21.9,33.4,N/A,,Overcast,30,2013-11-28 21:16:00
11:36 AM,37.4,28.4,70,30.18,10.0,NE,19.6,31.1,N/A,,Overcast,40,2013-11-28 21:36:00
11:56 AM,37.4,28.4,70,30.18,10.0,NE,27.6,33.4,N/A,,Overcast,40,2013-11-28 21:56:00
12:16 PM,37.4,28.4,70,30.19,10.0,NE,19.6,31.1,N/A,,Overcast,40,2013-11-28 22:16:00
12:36 PM,37.4,26.6,65,30.18,10.0,NNE,26.5,33.4,N/A,,Overcast,20,2013-11-28 22:36:00
12:56 PM,37.4,28.4,70,30.18,10.0,NE,20.7,28.8,N/A,,Overcast,50,2013-11-28 22:56:00
1:16 PM,37.4,28.4,70,30.18,10.0,NE,26.5,35.7,N/A,,Overcast,50,2013-11-28 23:16:00
1:36 PM,37.4,26.6,65,30.18,10.0,NNE,21.9,28.8,N/A,,Overcast,30,2013-11-28 23:36:00
1:56 PM,37.4,26.6,65,30.19,10.0,NE,21.9,33.4,N/A,,Overcast,50,2013-11-28 23:56:00
2:16 PM,37.4,28.4,70,30.19,10.0,NE,28.8,35.7,N/A,,Overcast,50,2013-11-29 00:16:00
2:36 PM,37.4,28.4,70,30.19,10.0,NE,27.6,33.4,N/A,,Overcast,40,2013-11-29 00:36:00
2:56 PM,37.4,26.6,65,30.19,10.0,NE,19.6,31.1,N/A,,Overcast,40,2013-11-29 00:56:00
3:16 PM,37.4,28.4,70,30.20,10.0,NE,20.7,26.5,N/A,,Overcast,50,2013-11-29 01:16:00
3:36 PM,37.4,26.6,65,30.19,10.0,NE,23.0,29.9,N/A,,Overcast,40,2013-11-29 01:36:00
3:56 PM,37.4,26.6,65,30.19,10.0,NNE,17.3,20.7,N/A,,Overcast,30,2013-11-29 01:56:00
4:16 PM,37.4,28.4,70,30.20,10.0,NE,21.9,-,N/A,,Overcast,50,2013-11-29 02:16:00
4:36 PM,37.4,28.4,70,30.21,10.0,NE,17.3,28.8,N/A,,Overcast,50,2013-11-29 02:36:00
4:56 PM,37.4,28.4,70,30.20,10.0,NNE,25.3,34.5,N/A,,Overcast,30,2013-11-29 02:56:00
5:16 PM,37.4,28.4,70,30.20,10.0,NE,25.3,32.2,N/A,,Overcast,40,2013-11-29 03:16:00
5:56 PM,37.4,26.6,65,30.21,10.0,NE,20.7,31.1,N/A,,Overcast,40,2013-11-29 03:56:00
6:16 PM,37.4,28.4,70,30.22,10.0,East,21.9,27.6,N/A,,Overcast,80,2013-11-29 04:16:00
6:36 PM,37.4,26.6,65,30.22,10.0,NNE,20.7,-,N/A,,Overcast,30,2013-11-29 04:36:00
6:56 PM,37.4,28.4,70,30.24,10.0,ENE,19.6,26.5,N/A,,Overcast,60,2013-11-29 04:56:00
7:16 PM,37.4,26.6,65,30.24,10.0,NE,19.6,25.3,N/A,,Overcast,40,2013-11-29 05:16:00
7:36 PM,35.6,26.6,70,30.23,10.0,ENE,26.5,32.2,N/A,,Mostly Cloudy,70,2013-11-29 05:36:00
7:56 PM,37.4,26.6,65,30.25,10.0,NE,20.7,27.6,N/A,,Mostly Cloudy,50,2013-11-29 05:56:00
8:16 PM,37.4,26.6,65,30.24,10.0,NE,23.0,32.2,N/A,,Overcast,50,2013-11-29 06:16:00
8:36 PM,37.4,26.6,65,30.24,10.0,NE,18.4,-,N/A,,Overcast,50,2013-11-29 06:36:00
8:56 PM,37.4,26.6,65,30.22,10.0,NNE,15.0,-,N/A,,Mostly Cloudy,30,2013-11-29 06:56:00
9:16 PM,37.4,26.6,65,30.25,10.0,East,15.0,-,N/A,,Mostly Cloudy,80,2013-11-29 07:16:00
9:36 PM,37.4,26.6,65,30.24,10.0,NE,16.1,-,N/A,,Overcast,40,2013-11-29 07:36:00
9:56 PM,37.4,28.4,70,30.23,10.0,East,17.3,-,N/A,,Mostly Cloudy,90,2013-11-29 07:56:00
10:16 PM,37.4,28.4,70,30.23,10.0,East,17.3,25.3,N/A,,Mostly Cloudy,80,2013-11-29 08:16:00
10:36 PM,37.4,26.6,65,30.23,10.0,Calm,Calm,-,N/A,,Overcast,0,2013-11-29 08:36:00
10:56 PM,37.4,26.6,65,30.24,10.0,East,15.0,-,N/A,,Mostly Cloudy,80,2013-11-29 08:56:00
11:16 PM,37.4,26.6,65,30.23,10.0,NE,15.0,19.6,N/A,,Overcast,50,2013-11-29 09:16:00
11:36 PM,37.4,26.6,65,30.25,10.0,ENE,11.5,-,N/A,,Overcast,70,2013-11-29 09:36:00
11:56 PM,37.4,28.4,70,30.25,10.0,NNE,12.7,16.1,N/A,,Overcast,20,2013-11-29 09:56:00